Location: Sevilla
(37.3933°N, 5.9839°W)
Time: 13:25:00
(UTC+02:00)

S-56A Canister/Altair - Pass Details

Date: 28 June 2024
Orbit: 638 x 2488 km, 38.9° (Epoch: 14 July)

Event Time Altitude Azimuth Distance (km) Brightness Sun altitude
Rises 04:45:19 0° 285° (WNW) 5,360 11.7 -21.2°
Reaches altitude 10° 04:49:09 10° 276° (W) 4,592 11.2 -20.8°
Maximum altitude 04:59:51 30° 222° (SW) 3,630 10.3 -19.5°
Drops below altitude 10° 05:11:51 10° 169° (SSE) 5,121 11.3 -18.1°
Sets 05:16:31 0° 159° (SSE) 6,052 11.8 -17.5°
